[[{"header":{"parameterUnit":"m.s-1","parameterCategory":2,"la1":30.2992,"la2":30.254,"lo1":-89.0895,"lo2":-89.0443,"dy":0.0025,"dx":0.0025,"nx":19,"ny":19,"refTime":"2026-03-19T09:00:00:Z","depth":"0","parameterNumber":2,"parameterNumberName":"U-component_of_CURRENTS"},"data":[0,0,0,-0.1634,-0.1636,-0.178,-0.1781,-0.1915,-0.1916,0,0,0,0,0,0,0,0,0,0,0,-0.1567,-0.1567,-0.1634,-0.1637,-0.178,-0.1781,-0.1915,-0.1916,0,0,0,0,0,0,0,0,0,0,0,-0.1567,-0.1567,-0.1568,-0.1637,-0.178,-0.1781,-0.1915,-0.1822,0,0,0,0,0,0,0,0,0,0,-0.1691,-0.1629,-0.1567,-0.1568,-0.1638,-0.178,-0.1781,-0.1819,-0.1828,-0.1831,0,-0.1833,0,-0.1878,-0.1923,-0.1923,0,0,0,-0.1652,-0.1621,-0.1661,-0.1568,-0.1639,-0.1779,-0.172,-0.1824,-0.1835,-0.1844,-0.1836,-0.1842,-0.188,-0.1923,-0.1924,-0.1771,-0.1768,0,0,-0.1644,-0.1599,-0.1654,-0.1667,-0.1649,-0.1715,-0.1724,-0.1832,-0.1828,-0.1836,-0.1846,-0.1882,-0.1924,-0.1925,-0.1773,-0.177,0,0,0,-0.1611,-0.1592,-0.1632,-0.166,-0.169,-0.1719,-0.1729,-0.1824,-0.1837,-0.1848,-0.1884,-0.1924,-0.1926,-0.1775,-0.1772,-0.1484,0,0,0,-0.1607,-0.1573,-0.1627,-0.1603,-0.1688,-0.1766,-0.1718,-0.1829,-0.1843,-0.1883,-0.1924,-0.1927,-0.1778,-0.1774,-0.1497,-0.1513,0,0,0,-0.1566,-0.1569,-0.1578,-0.16,-0.1658,-0.1765,-0.1786,-0.1834,-0.1864,-0.1923,-0.1927,-0.178,-0.1774,-0.151,-0.1529,-0.1507,0,0,0,-0.1528,-0.1462,-0.1576,-0.1507,-0.1656,-0.1594,-0.1786,-0.1791,-0.182,-0.1925,-0.1778,-0.1772,-0.1513,-0.1539,-0.1515,-0.1611,-0.1581,0,0,-0.1409,-0.1447,-0.1401,-0.1506,-0.1402,-0.1578,-0.1436,-0.1595,-0.1731,-0.1749,-0.1747,-0.1493,-0.153,-0.1509,-0.128,-0.1261,0,0,0,-0.1339,-0.1308,-0.1288,-0.1278,-0.1285,-0.1285,-0.1396,-0.1411,-0.1441,-0.1723,-0.1457,-0.1493,-0.1488,-0.156,-0.1541,-0.1765,-0.1746,-0.1746,-0.1747,-0.1106,-0.1139,-0.1062,-0.1082,-0.1043,-0.1065,-0.1046,-0.1098,-0.1205,-0.1147,-0.1223,-0.0984,-0.1044,-0.1035,-0.1257,-0.1112,-0.1111,-0.111,-0.1109,-0.0948,-0.0931,-0.0952,-0.0908,-0.0896,-0.0813,-0.0766,-0.0805,-0.0781,-0.0893,-0.0898,-0.1211,-0.1,-0.1244,-0.109,-0.1094,-0.1096,-0.1098,-0.1099,-0.0842,-0.0848,-0.0861,-0.0837,-0.0774,-0.0744,-0.0696,-0.0661,-0.0652,-0.0609,-0.0836,-0.0843,-0.1108,-0.0631,-0.0631,-0.0631,-0.0631,-0.0631,-0.063,-0.0768,-0.0777,-0.0781,-0.0774,-0.0765,-0.0739,-0.0693,-0.0669,-0.0652,-0.0644,-0.0646,-0.1043,-0.0845,-0.0921,-0.0628,-0.0628,-0.0628,-0.0629,-0.0629,-0.0679,-0.072,-0.0712,-0.0722,-0.0726,-0.0712,-0.0714,-0.0718,-0.069,-0.0685,-0.0939,-0.0664,-0.0829,-0.0846,-0.0925,-0.0652,-0.0652,-0.0652,-0.0652,-0.0634,-0.0649,-0.0662,-0.0674,-0.0677,-0.069,-0.0741,-0.085,-0.0988,-0.109,-0.1067,-0.1147,-0.1136,-0.1327,-0.1333,-0.1426,-0.1286,-0.1287,-0.1288,-0.06,-0.0611,-0.0604,-0.0638,-0.0652,-0.0673,-0.075,-0.1026,-0.1288,-0.1334,-0.1347,-0.132,-0.1457,-0.1423,-0.1745,-0.1735,-0.1898,0,0]},{"header":{"parameterUnit":"m.s-1","parameterCategory":2,"la1":30.2992,"la2":30.254,"lo1":-89.0895,"lo2":-89.0443,"dy":0.0025,"dx":0.0025,"nx":19,"ny":19,"refTime":"2026-03-19T09:00:00:Z","depth":"0","parameterNumber":3,"parameterNumberName":"V-component_of_CURRENTS"},"data":[0,0,0,-0.0236,-0.0234,-0.0168,-0.0168,-0.0187,-0.0187,0,0,0,0,0,0,0,0,0,0,0,-0.0257,-0.0256,-0.0236,-0.0233,-0.0168,-0.0168,-0.0187,-0.0187,0,0,0,0,0,0,0,0,0,0,0,-0.0258,-0.0256,-0.0254,-0.0233,-0.0168,-0.0168,-0.0187,-0.0218,0,0,0,0,0,0,0,0,0,0,-0.0272,-0.0299,-0.0256,-0.0254,-0.0232,-0.0168,-0.0168,-0.0219,-0.0216,-0.0237,0,-0.0198,0,-0.0182,-0.0188,-0.0188,0,0,0,-0.0263,-0.0301,-0.0244,-0.0254,-0.0231,-0.0168,-0.0206,-0.0217,-0.0214,-0.0234,-0.0198,-0.0198,-0.0182,-0.0188,-0.0188,-0.0071,-0.007,0,0,-0.0266,-0.0293,-0.0245,-0.0241,-0.0178,-0.0208,-0.0203,-0.0214,-0.0222,-0.0198,-0.0198,-0.0182,-0.0188,-0.0189,-0.0072,-0.007,0,0,0,-0.0257,-0.0296,-0.0238,-0.0241,-0.0214,-0.0205,-0.02,-0.0222,-0.019,-0.0198,-0.0183,-0.0189,-0.0189,-0.0074,-0.0072,0.0006,0,0,0,-0.0261,-0.0287,-0.0239,-0.0262,-0.0212,-0.0211,-0.0208,-0.019,-0.019,-0.0183,-0.0189,-0.0189,-0.0075,-0.0073,0.0001,-0.0039,0,0,0,-0.0266,-0.029,-0.0261,-0.0262,-0.0215,-0.0209,-0.0181,-0.0189,-0.018,-0.0188,-0.0189,-0.0076,-0.0073,-0.0004,-0.0045,-0.0091,0,0,0,-0.0327,-0.0229,-0.0261,-0.0139,-0.0215,-0.0069,-0.0181,-0.0106,-0.0093,-0.0189,-0.0075,-0.0072,-0.0005,-0.0048,-0.0093,-0.0202,-0.0202,0,0,-0.0222,-0.0219,-0.0133,-0.0157,0.0001,-0.0082,0.0031,-0.0012,-0.006,-0.0088,-0.0085,0.0003,-0.0045,-0.0091,-0.001,-0.0017,0,0,0,-0.0109,-0.0064,-0.001,0.0062,0.0141,0.0119,0.0112,0.0086,0.0063,-0.0032,0.0049,0.0015,-0.0017,-0.0084,-0.0087,0.0086,-0.0056,-0.0057,-0.0057,-0.0076,0.0006,0.0106,0.0191,0.0257,0.0274,0.0255,0.0203,0.0189,0.0201,0.0117,0.0178,0.0117,0.0111,0.0296,0.0199,0.0199,0.02,0.02,0.0005,0.0028,0.0112,0.0225,0.0246,0.0304,0.0313,0.0295,0.0246,0.0238,0.0204,0.005,0.011,0.0309,0.0206,0.0205,0.0204,0.0203,0.0203,-0.008,-0.0061,0.0019,0.0125,0.0176,0.0244,0.0219,0.025,0.0249,0.0241,0.0106,0.0103,0.0232,0.0225,0.0224,0.0224,0.0224,0.0224,0.0223,-0.0242,-0.015,-0.0106,0.0011,0.0049,0.0089,0.0146,0.0139,0.0127,0.0127,0.0126,0.0291,0.0182,0.0128,0.0219,0.022,0.022,0.0221,0.0221,-0.0334,-0.0307,-0.0246,-0.0198,-0.0095,-0.0117,-0.0033,-0.005,-0.0044,-0.0076,0.0199,0.0053,-0.002,-0.0017,-0.0076,-0.0045,-0.0045,-0.0045,-0.0045,-0.0437,-0.0405,-0.0344,-0.0294,-0.0257,-0.0209,-0.0292,-0.0244,-0.0042,0.0079,0.0197,0.0251,0.0254,0.0202,0.02,0.0148,0.0236,0.0237,0.0238,-0.0485,-0.046,-0.0447,-0.0368,-0.0316,-0.0334,-0.0437,-0.0374,0.0004,0.0276,0.0473,0.0461,0.0573,0.0562,0.0502,0.0485,0.0406,0,0]}],[{"header":{"parameterUnit":"m.s-1","parameterCategory":2,"la1":30.2992,"la2":30.254,"lo1":-89.0895,"lo2":-89.0443,"dy":0.0025,"dx":0.0025,"nx":19,"ny":19,"refTime":"2026-03-19T09:00:00:Z","depth":"2","parameterNumber":2,"parameterNumberName":"U-component_of_CURRENTS"},"data":[0,0,0,-0.1591,-0.1592,-0.1623,-0.1623,-0.1586,-0.1586,0,0,0,0,0,0,0,0,0,0,0,-0.157,-0.157,-0.1591,-0.1592,-0.1623,-0.1623,-0.1587,-0.1586,0,0,0,0,0,0,0,0,0,0,0,-0.1569,-0.157,-0.157,-0.1592,-0.1623,-0.1623,-0.1587,-0.158,0,0,0,0,0,0,0,0,0,0,-0.1559,-0.1541,-0.157,-0.157,-0.1593,-0.1623,-0.1623,-0.1581,-0.158,-0.1554,0,-0.1559,0,-0.1579,-0.1583,-0.1583,0,0,0,-0.1583,-0.1542,-0.1565,-0.157,-0.1593,-0.1623,-0.1606,-0.1581,-0.1581,-0.1553,-0.1559,-0.1558,-0.1578,-0.1582,-0.1582,-0.1475,-0.1474,0,0,-0.1582,-0.1559,-0.1565,-0.1565,-0.16,-0.1606,-0.1608,-0.1582,-0.157,-0.1559,-0.1558,-0.1577,-0.1582,-0.1582,-0.1475,-0.1474,0,0,0,-0.1583,-0.1557,-0.1582,-0.1565,-0.1581,-0.1607,-0.1609,-0.1571,-0.1584,-0.1558,-0.1577,-0.1582,-0.1581,-0.1476,-0.1475,-0.1404,0,0,0,-0.1581,-0.1559,-0.1581,-0.1566,-0.1582,-0.1584,-0.1598,-0.1585,-0.1584,-0.1577,-0.1582,-0.1581,-0.1477,-0.1476,-0.1407,-0.1467,0,0,0,-0.1568,-0.1558,-0.1565,-0.1565,-0.1586,-0.1586,-0.1597,-0.1586,-0.1595,-0.1582,-0.1581,-0.1478,-0.1476,-0.1411,-0.1469,-0.1532,0,0,0,-0.1539,-0.1492,-0.1564,-0.1512,-0.1586,-0.1542,-0.1597,-0.1565,-0.1546,-0.1582,-0.1477,-0.1475,-0.1412,-0.1471,-0.1532,-0.1649,-0.1657,0,0,-0.1453,-0.1481,-0.1449,-0.1514,-0.1477,-0.1538,-0.1477,-0.149,-0.1509,-0.1481,-0.1479,-0.1406,-0.147,-0.1532,-0.1538,-0.155,0,0,0,-0.1404,-0.1403,-0.1392,-0.1403,-0.1398,-0.144,-0.1434,-0.1422,-0.1401,-0.1494,-0.1387,-0.1431,-0.1473,-0.1542,-0.155,-0.1466,-0.1466,-0.1466,-0.1467,-0.1299,-0.1323,-0.1301,-0.134,-0.1325,-0.1349,-0.1362,-0.136,-0.1321,-0.1293,-0.1354,-0.134,-0.1404,-0.1414,-0.1286,-0.1286,-0.1285,-0.1285,-0.1285,-0.1256,-0.126,-0.131,-0.1294,-0.1333,-0.1295,-0.1306,-0.1296,-0.1298,-0.1254,-0.1296,-0.144,-0.142,-0.1279,-0.128,-0.1281,-0.1281,-0.1282,-0.1282,-0.1257,-0.1251,-0.1266,-0.1266,-0.1278,-0.1279,-0.134,-0.132,-0.1307,-0.1335,-0.1457,-0.146,-0.1384,-0.1335,-0.1336,-0.1336,-0.1337,-0.1337,-0.1337,-0.1225,-0.1244,-0.121,-0.122,-0.1208,-0.1246,-0.1331,-0.1411,-0.1489,-0.1467,-0.1468,-0.136,-0.1359,-0.139,-0.1345,-0.1343,-0.1342,-0.1342,-0.1341,-0.1147,-0.1144,-0.1109,-0.1091,-0.112,-0.1226,-0.1357,-0.1596,-0.1665,-0.1743,-0.1562,-0.1554,-0.1629,-0.1622,-0.1661,-0.169,-0.169,-0.169,-0.169,-0.1057,-0.1068,-0.0999,-0.0988,-0.1062,-0.1211,-0.1422,-0.1497,-0.1599,-0.154,-0.1545,-0.1478,-0.1471,-0.1532,-0.1527,-0.1562,-0.1565,-0.1564,-0.1563,-0.0953,-0.0965,-0.0895,-0.0927,-0.1021,-0.1254,-0.139,-0.13,-0.1333,-0.154,-0.1335,-0.1718,-0.1634,-0.1616,-0.1722,-0.171,-0.1771,0,0]},{"header":{"parameterUnit":"m.s-1","parameterCategory":2,"la1":30.2992,"la2":30.254,"lo1":-89.0895,"lo2":-89.0443,"dy":0.0025,"dx":0.0025,"nx":19,"ny":19,"refTime":"2026-03-19T09:00:00:Z","depth":"2","parameterNumber":3,"parameterNumberName":"V-component_of_CURRENTS"},"data":[0,0,0,-0.0023,-0.0022,0.0038,0.0038,0.0174,0.0175,0,0,0,0,0,0,0,0,0,0,0,-0.0055,-0.0055,-0.0023,-0.0022,0.0038,0.0038,0.0174,0.0175,0,0,0,0,0,0,0,0,0,0,0,-0.0054,-0.0055,-0.0055,-0.0022,0.0038,0.0038,0.0174,0.0118,0,0,0,0,0,0,0,0,0,0,0.0054,0.0027,-0.0055,-0.0055,-0.0022,0.0037,0.0038,0.0115,0.0122,0.0158,0,0.0145,0,0.0161,0.0184,0.0185,0,0,0,-0.0004,0.0021,0.0019,-0.0055,-0.0022,0.0037,0.0016,0.0118,0.0126,0.0167,0.0147,0.0152,0.0164,0.0185,0.0186,0.0214,0.0213,0,0,-0.0007,-0.0016,0.0013,0.0022,-0.0034,0.0014,0.0017,0.0122,0.0131,0.0147,0.0155,0.0166,0.0186,0.0187,0.0214,0.0213,0,0,0,-0.0029,-0.0019,-0.0024,0.0017,0.0022,0.0015,0.0019,0.0127,0.0118,0.0156,0.0168,0.0187,0.0188,0.0215,0.0214,0.0097,0,0,0,-0.003,-0.0033,-0.0026,-0.0026,0.0018,0.0072,0.0021,0.0111,0.0123,0.0167,0.0187,0.0189,0.0216,0.0214,0.0102,0.0094,0,0,0,-0.0052,-0.0033,-0.0041,-0.0028,-0.0011,0.007,0.0069,0.0114,0.013,0.0185,0.019,0.0216,0.0215,0.0106,0.0101,0.0116,0,0,0,-0.0043,-0.0076,-0.0041,-0.0065,-0.0012,-0.0012,0.0069,0.0106,0.0146,0.0187,0.0216,0.0214,0.0107,0.0104,0.0119,0.0272,0.0272,0,0,-0.0084,-0.008,-0.0096,-0.0064,-0.0091,-0.0017,-0.0039,0.0058,0.0133,0.0191,0.0192,0.01,0.0101,0.0117,0.0179,0.0182,0,0,0,-0.0108,-0.0123,-0.0124,-0.0126,-0.0111,-0.0097,-0.0023,-0.0002,0.005,0.0145,0.01,0.0106,0.0119,0.0217,0.0218,0.0206,0.0207,0.0207,0.0207,-0.0194,-0.0179,-0.0189,-0.0178,-0.0178,-0.0148,-0.0138,-0.0092,-0.0023,-0.0031,0.0008,-0.0058,0.004,0.0044,-0.0016,-0.0017,-0.0017,-0.0018,-0.0018,-0.0229,-0.0204,-0.021,-0.02,-0.0205,-0.0207,-0.0216,-0.0192,-0.0165,-0.0116,-0.0098,0.0085,0.004,-0.0027,-0.0026,-0.0024,-0.0023,-0.0023,-0.0022,-0.022,-0.0198,-0.0192,-0.0179,-0.0194,-0.0203,-0.0223,-0.0226,-0.0212,-0.0222,-0.0028,-0.0023,-0.0081,-0.0187,-0.0187,-0.0187,-0.0187,-0.0188,-0.0188,-0.0175,-0.0175,-0.0151,-0.0145,-0.0149,-0.0167,-0.0199,-0.0199,-0.0135,-0.01,-0.0098,-0.0112,-0.0107,-0.0088,-0.0188,-0.0188,-0.0188,-0.0188,-0.0188,-0.011,-0.0116,-0.0087,-0.0086,-0.0122,-0.0185,-0.0186,-0.0105,-0.0068,-0.0001,-0.0019,-0.0023,0.0056,0.0058,0.0083,0.0033,0.0033,0.0033,0.0033,-0.0068,-0.0069,-0.0043,-0.0063,-0.0127,-0.0201,-0.0247,-0.0234,-0.009,-0.0037,-0.0036,-0.0015,-0.0019,0.0056,0.0058,0.0083,0.0033,0.0032,0.0031,-0.0028,-0.0027,-0.0009,-0.0042,-0.0139,-0.025,-0.0355,-0.0344,-0.0082,0.0014,-0.021,0.0067,0.0107,0.0096,0.0225,0.0222,0.0268,0,0]}],[{"header":{"parameterUnit":"m.s-1","parameterCategory":2,"la1":30.2992,"la2":30.254,"lo1":-89.0895,"lo2":-89.0443,"dy":0.0025,"dx":0.0025,"nx":19,"ny":19,"refTime":"2026-03-19T09:00:00:Z","depth":"4","parameterNumber":2,"parameterNumberName":"U-component_of_CURRENTS"},"data":[0,0,0,-0.0937,-0.0937,-0.0955,-0.0955,-0.0996,-0.0996,0,0,0,0,0,0,0,0,0,0,0,-0.0941,-0.0941,-0.0937,-0.0938,-0.0955,-0.0955,-0.0996,-0.0996,0,0,0,0,0,0,0,0,0,0,0,-0.094,-0.0941,-0.0942,-0.0938,-0.0955,-0.0955,-0.0996,-0.0977,0,0,0,0,0,0,0,0,0,0,-0.0957,-0.0952,-0.0941,-0.0942,-0.0938,-0.0955,-0.0955,-0.0976,-0.0978,-0.0996,0,-0.1011,0,-0.1004,-0.1,-0.1,0,0,0,-0.0932,-0.095,-0.0962,-0.0942,-0.0938,-0.0955,-0.0945,-0.0977,-0.0979,-0.0999,-0.1011,-0.1012,-0.1005,-0.1,-0.1001,-0.1121,-0.1122,0,0,-0.0931,-0.0934,-0.0961,-0.0965,-0.096,-0.0945,-0.0946,-0.0978,-0.0985,-0.1011,-0.1013,-0.1005,-0.1001,-0.1001,-0.112,-0.1121,0,0,0,-0.0932,-0.0934,-0.0944,-0.0963,-0.0965,-0.0945,-0.0947,-0.0983,-0.0989,-0.1013,-0.1006,-0.1001,-0.1002,-0.1119,-0.1121,-0.1163,0,0,0,-0.0931,-0.0934,-0.0944,-0.0944,-0.0964,-0.0969,-0.0951,-0.0987,-0.099,-0.1006,-0.1001,-0.1002,-0.1118,-0.112,-0.1159,-0.12,0,0,0,-0.0937,-0.0934,-0.0943,-0.0945,-0.0954,-0.0968,-0.0976,-0.0987,-0.0986,-0.1,-0.1003,-0.1118,-0.112,-0.1156,-0.1194,-0.1231,0,0,0,-0.0928,-0.0943,-0.0944,-0.0963,-0.0954,-0.0989,-0.0975,-0.1008,-0.1026,-0.1001,-0.1118,-0.1121,-0.1156,-0.1191,-0.1228,-0.0983,0,0,0,-0.0938,-0.0944,-0.0956,-0.0958,-0.0993,-0.0985,-0.1036,-0.1058,-0.1066,-0.1106,-0.1108,-0.116,-0.1194,-0.1231,-0.1113,0,0,0,0,-0.0953,-0.0965,-0.0975,-0.1001,-0.1024,-0.1072,-0.1084,-0.1102,-0.1159,-0.1087,-0.1193,-0.1214,-0.1235,-0.1084,-0.1131,-0.1131,-0.1131,-0.113,-0.113,-0.0951,-0.0977,-0.1008,-0.1052,-0.1087,-0.1139,-0.1184,-0.1223,-0.1204,-0.1254,-0.127,-0.1363,-0.1207,-0.1285,-0.1285,-0.1285,-0.1286,-0.1286,-0.1286,-0.0962,-0.0976,-0.104,-0.1082,-0.1154,-0.121,-0.1292,-0.1309,-0.1387,-0.1354,-0.1371,-0.1167,-0.1291,-0.129,-0.1289,-0.1289,-0.1288,-0.1288,-0.1288,-0.0943,-0.0954,-0.1005,-0.1083,-0.1179,-0.1253,-0.1325,-0.1401,-0.1443,-0.1484,-0.1309,-0.1407,-0.1377,-0.1478,-0.1479,-0.1479,-0.1479,-0.148,-0.148,-0.0889,-0.0941,-0.0974,-0.1076,-0.1128,-0.1223,-0.1356,-0.1384,-0.1445,-0.1361,-0.1498,-0.1428,-0.1422,-0.139,-0.1485,-0.1484,-0.1484,-0.1483,-0.1483,-0.0826,-0.0863,-0.0894,-0.0943,-0.1057,-0.1117,-0.1274,-0.1275,-0.1305,-0.1261,-0.1287,-0.1295,-0.1261,-0.1259,-0.1219,-0.1268,-0.1265,-0.1262,0,-0.0771,-0.0794,-0.0806,-0.0839,-0.0892,-0.1035,-0.1009,-0.1067,-0.1129,-0.1098,-0.1302,-0.1332,-0.1336,-0.1296,-0.129,-0.1242,0,0,0,-0.0718,-0.0733,-0.0704,-0.075,-0.0797,-0.0872,-0.0994,-0.0954,-0.1147,-0.1056,-0.1192,-0.1211,-0.1318,-0.1502,-0.147,-0.1462,-0.1409,0,0]},{"header":{"parameterUnit":"m.s-1","parameterCategory":2,"la1":30.2992,"la2":30.254,"lo1":-89.0895,"lo2":-89.0443,"dy":0.0025,"dx":0.0025,"nx":19,"ny":19,"refTime":"2026-03-19T09:00:00:Z","depth":"4","parameterNumber":3,"parameterNumberName":"V-component_of_CURRENTS"},"data":[0,0,0,0.0052,0.0052,0.0088,0.0088,0.0184,0.0185,0,0,0,0,0,0,0,0,0,0,0,0.0039,0.0039,0.0052,0.0052,0.0088,0.0088,0.0184,0.0185,0,0,0,0,0,0,0,0,0,0,0,0.0039,0.0039,0.0039,0.0052,0.0088,0.0088,0.0184,0.0148,0,0,0,0,0,0,0,0,0,0,0.0108,0.0079,0.0039,0.0039,0.0052,0.0088,0.0088,0.0146,0.015,0.0177,0,0.0171,0,0.0175,0.0191,0.0192,0,0,0,0.0067,0.0075,0.0087,0.0039,0.0052,0.0088,0.0076,0.0148,0.0153,0.0183,0.0172,0.0176,0.0177,0.0192,0.0192,0.0189,0.0188,0,0,0.0065,0.0049,0.0083,0.009,0.0048,0.0075,0.0077,0.0151,0.015,0.0173,0.0178,0.0178,0.0192,0.0193,0.0189,0.0189,0,0,0,0.0049,0.0047,0.0057,0.0086,0.0086,0.0075,0.0078,0.0147,0.015,0.0179,0.0179,0.0193,0.0194,0.019,0.0189,0.0152,0,0,0,0.0049,0.0037,0.0056,0.0047,0.0083,0.0108,0.0072,0.0145,0.0153,0.0179,0.0193,0.0195,0.0191,0.019,0.0155,0.0129,0,0,0,0.004,0.0037,0.0037,0.0046,0.0055,0.0107,0.0115,0.0147,0.0153,0.0192,0.0195,0.0192,0.019,0.0157,0.0133,0.0116,0,0,0,0.003,-0.0012,0.0036,-0.0014,0.0055,0.0028,0.0114,0.0101,0.0119,0.0193,0.0191,0.0189,0.0158,0.0136,0.0118,0.0048,0,0,0,-0.0037,-0.0021,-0.0053,-0.001,-0.0042,0.0026,0.0009,0.0071,0.0109,0.0176,0.0175,0.0154,0.0133,0.0116,-0.0054,0,0,0,0,-0.0084,-0.0088,-0.0099,-0.0098,-0.0099,-0.0057,-0.0002,0.0031,0.0081,0.0111,0.0129,0.0116,0.0108,0.0072,0.0181,0.0181,0.0181,0.0181,0.0182,-0.0144,-0.014,-0.0179,-0.0157,-0.0162,-0.0112,-0.0083,-0.0021,0.0024,0.0028,0.0068,0.0002,-0.004,0.0053,0.0052,0.0052,0.0052,0.0052,0.0052,-0.0209,-0.0229,-0.0206,-0.0239,-0.0197,-0.0193,-0.0121,-0.0079,-0.0028,0.0008,0.0002,0.0011,0.0048,0.0048,0.0049,0.0049,0.005,0.005,0.005,-0.0224,-0.024,-0.0251,-0.0282,-0.0281,-0.0243,-0.0246,-0.0169,-0.0084,-0.0077,-0.0111,-0.0029,-0.0003,-0.008,-0.0081,-0.0081,-0.0081,-0.0081,-0.0081,-0.025,-0.0262,-0.031,-0.0335,-0.0365,-0.0378,-0.0328,-0.0306,-0.0216,-0.0179,-0.0097,-0.0042,-0.0038,-0.0012,-0.0085,-0.0084,-0.0084,-0.0083,-0.0083,-0.0294,-0.0304,-0.0374,-0.0417,-0.0495,-0.05,-0.0467,-0.0417,-0.0393,-0.0351,-0.0223,-0.0215,-0.0206,-0.0198,-0.0176,-0.03,-0.0301,-0.0302,0,-0.0328,-0.0337,-0.044,-0.0525,-0.0595,-0.0577,-0.0583,-0.0544,-0.0422,-0.0401,-0.0368,-0.0224,-0.0218,-0.0208,-0.0202,-0.0179,0,0,0,-0.037,-0.0389,-0.0473,-0.0555,-0.0639,-0.0614,-0.058,-0.0563,-0.043,-0.0455,-0.0332,-0.0324,-0.0259,-0.0094,-0.0062,-0.0056,-0.0013,0,0]}]]